RH
34 32 30 31 29 27 31 40 43 42 41 41 42 45 48 52 51 51 76 87 86 73 62 66 76 84 79 67 72 77 92 84 74 59 49 33 30 22 18 14 37 43 49 49 78
33 32 32 34 33 32 37 44 43 42 42 43 46 50 58 60 57 67 78 76 65 67 55 61 71 72 72 68 68 79 94 78 57 50 42 32 31 31 21 26 64 64 56 59 83
34 35 35 37 38 37 42 43 43 44 45 46 50 56 65 68 76 83 86 60 58 54 60 56 80 80 78 69 70 72 85 62 59 51 43 40 37 31 26 38 44 80 78 91 92
37 38 39 38 41 41 42 44 45 45 47 50 54 57 67 77 90 79 77 75 60 59 60 75 81 80 82 85 66 80 66 64 63 59 54 52 44 40 31 26 30 35 47 83 94
38 39 40 40 41 41 42 43 44 46 49 54 58 62 67 86 82 73 79 71 58 59 72 83 83 71 78 67 68 76 64 60 61 60 58 56 52 42 37 30 35 61 63 72 90
39 40 40 41 42 43 43 45 48 50 54 59 62 65 84 90 84 80 73 71 60 71 74 84 87 71 70 78 79 64 63 64 63 61 62 59 53 41 36 31 51 60 68 78 87
38 37 35 33 33 34 37 44 50 54 58 60 66 72 86 70 80 80 76 69 70 81 90 77 81 84 71 76 65 70 82 72 67 62 62 58 61 49 36 34 69 72 78 83 93
34 31 29 29 32 36 42 47 51 55 57 60 65 78 79 68 70 73 72 73 79 87 98 88 77 89 82 73 72 77 79 92 56 56 53 68 76 53 39 33 66 83 84 84 96
29 26 26 27 32 44 47 48 52 52 55 60 68 82 84 70 71 76 74 78 80 93 90 92 86 91 76 90 98 93 94 94 75 53 59 71 74 49 41 36 55 72 82 86 92
24 24 25 27 40 49 46 46 61 62 68 76 83 89 74 68 68 69 72 81 90 88 92 93 96 93 92 98 96 95 95 82 74 55 61 70 68 55 51 43 50 65 74 80 78
20 21 24 30 51 49 48 58 61 75 78 67 70 68 67 68 68 72 84 83 91 91 85 86 97 98 85 92 81 80 86 88 65 50 61 71 68 54 46 45 53 61 70 73 68
17 19 25 42 55 53 60 77 74 69 79 54 65 67 68 72 73 72 82 80 86 92 80 93 96 70 67 77 84 81 88 87 69 57 57 74 75 58 49 46 50 60 69 67 64
17 20 26 53 56 61 66 65 64 69 89 70 68 65 71 72 76 71 76 83 90 94 93 94 86 76 78 92 95 86 85 80 78 64 60 69 83 72 52 42 50 56 63 63 61
20 22 32 57 72 69 82 68 60 70 90 73 68 75 71 75 78 63 70 80 92 98 95 99 92 95 97 100 95 98 72 77 74 97 92 71 93 63 53 54 64 58 64 66 62
22 24 38 60 60 77 72 61 64 92 80 60 67 67 64 73 57 64 60 88 91 82 95 90 97 97 100 96 96 95 82 99 97 93 96 96 90 42 44 63 61 59 65 64 60
28 26 45 66 71 70 67 61 79 84 77 71 67 68 69 60 52 48 65 75 75 83 78 91 92 91 93 84 82 82 91 86 97 89 98 78 73 58 72 54 62 57 62 63 61
36 33 48 65 81 68 64 78 87 84 57 65 69 65 71 69 57 54 58 77 86 97 86 79 94 79 79 94 80 95 98 98 98 98 91 61 51 52 49 49 53 57 59 62 61
40 37 53 63 69 67 76 86 88 69 62 56 72 70 77 59 58 56 59 80 70 75 92 98 93 81 78 75 68 86 68 96 96 85 79 56 68 35 48 43 40 46 53 58 58
46 49 54 70 72 71 81 93 87 85 50 60 64 69 74 63 61 63 59 62 50 50 71 96 91 57 60 48 44 50 86 59 68 81 85 74 45 39 60 48 46 46 47 54 54
61 87 98 84 75 80 88 82 73 45 51 57 73 57 60 54 70 63 51 46 52 49 45 59 83 55 46 46 46 44 52 83 90 90 77 89 53 68 65 57 50 55 47 47 46
74 96 98 97 78 86 94 84 59 48 50 61 63 64 57 59 56 56 48 49 51 54 55 50 62 69 50 54 58 51 73 68 81 98 97 84 61 38 50 67 49 49 43 42 41
91 95 100 87 92 92 97 71 49 48 50 58 56 63 66 58 61 54 51 51 54 55 64 50 53 79 61 48 46 50 49 57 80 86 98 98 65 49 47 51 52 51 50 46 39
89 97 100 99 97 96 75 53 51 53 58 58 62 58 50 57 66 55 51 52 54 55 59 59 66 86 75 55 48 54 44 41 46 81 86 88 52 45 58 56 51 59 57 53 46
79 98 100 100 98 92 69 55 64 53 55 53 56 53 56 59 56 60 52 51 56 54 57 58 68 67 84 75 65 61 49 40 53 84 65 55 44 50 51 60 66 62 60 62 66
67 82 80 98 98 88 62 52 51 52 57 51 58 59 58 65 57 53 54 52 58 56 56 58 74 61 60 58 54 54 52 44 43 51 54 40 42 42 49 64 64 62 67 67 65
77 69 55 53 49 86 78 60 57 53 62 58 65 54 48 58 54 63 58 58 61 59 54 55 68 63 69 50 51 52 48 47 42 43 43 36 31 42 44 52 61 63 63 57 54
62 79 51 46 53 57 58 56 42 42 40 41 49 48 48 49 54 53 55 55 58 58 65 56 67 78 80 56 46 54 48 45 40 39 35 34 31 38 48 54 60 61 57 51 45
Wind_Speed
6 7 7 8 8 8 8 8 10 12 15 18 20 21 20 17 16 12 9 6 12 16 17 15 6 3 8 9 10 7 3 5 6 5 3 34 9 29 29 20 5 3 13 11 33
7 7 7 7 8 7 7 8 10 13 17 19 20 19 16 15 14 11 7 9 13 15 14 13 6 4 9 6 7 7 4 8 6 7 5 29 11 25 15 17 6 16 14 21 43
6 7 7 7 8 8 8 10 12 14 17 20 19 17 13 13 12 3 3 8 13 11 9 8 8 11 13 15 12 5 11 12 11 16 24 25 21 24 11 9 11 24 26 37 47
6 7 8 9 9 10 11 12 13 15 18 19 18 15 11 8 3 5 9 13 14 14 9 6 8 6 3 4 5 13 20 17 13 24 29 19 29 20 15 21 26 24 26 40 44
8 8 9 10 11 12 13 15 16 17 18 17 15 13 11 5 9 12 11 14 18 16 8 7 10 10 8 4 10 13 18 19 20 22 25 21 26 20 26 31 14 28 33 37 42
10 10 11 12 13 14 15 15 15 15 15 14 12 10 8 6 7 12 11 18 21 13 11 12 9 14 15 12 12 6 11 14 20 23 21 16 22 19 23 27 8 31 33 36 40
11 12 12 14 15 16 16 15 14 13 12 12 8 7 8 14 7 15 18 18 21 19 19 16 17 17 5 6 18 13 8 6 8 15 9 12 18 10 25 27 15 32 33 32 36
12 13 13 14 15 15 15 13 12 11 10 7 6 4 7 7 8 11 14 23 19 22 24 20 18 20 23 12 4 3 3 4 10 9 11 6 13 12 20 16 17 22 30 29 33
13 13 14 14 15 14 14 12 10 7 4 4 2 4 8 6 8 11 18 18 20 12 12 15 14 10 6 11 2 5 3 6 4 11 6 5 6 17 17 22 21 26 27 31 33
13 13 13 12 13 13 11 8 3 2 1 1 1 7 7 5 16 22 14 16 12 6 3 2 1 1 3 5 9 4 4 6 9 5 9 7 12 22 27 22 25 30 29 31 36
13 12 11 10 10 10 8 3 3 1 4 6 5 10 16 15 15 9 12 14 5 2 2 5 3 7 8 11 9 2 5 7 3 4 3 5 9 20 23 25 20 32 33 30 36
11 10 8 7 7 5 6 3 3 5 7 8 13 14 11 11 8 8 9 3 3 4 3 2 8 9 6 10 13 12 13 15 10 12 8 4 14 19 17 22 23 24 30 34 35
9 8 6 4 4 4 5 5 3 3 3 6 7 8 6 7 6 10 7 3 2 4 6 8 2 1 9 12 15 15 17 13 14 7 11 4 12 14 18 30 20 29 38 42 45
8 6 4 1 1 3 1 6 3 1 3 5 2 2 3 4 5 9 9 3 3 3 4 7 5 13 12 11 16 17 15 20 20 11 6 16 5 15 17 13 7 23 31 32 38
7 5 3 2 1 1 4 4 1 1 4 5 2 4 6 6 10 5 7 7 6 5 3 5 5 8 10 9 12 11 11 17 18 17 4 17 3 14 12 14 16 20 31 38 43
6 4 5 3 1 2 3 1 1 5 3 4 2 3 5 9 5 4 8 9 8 4 8 12 3 3 3 8 13 7 9 5 5 3 4 12 10 4 11 19 13 18 32 39 44
5 4 7 5 1 1 1 2 4 4 2 4 3 2 5 4 3 5 4 3 3 4 3 4 2 4 6 4 5 8 6 2 1 1 4 9 10 10 18 14 14 17 31 38 44
3 4 7 5 3 4 4 4 3 4 4 3 3 3 4 2 3 3 3 3 5 5 4 4 4 4 6 5 3 8 4 1 3 2 3 3 6 11 4 15 30 36 39 40 43
3 4 6 7 5 7 3 3 6 6 1 3 7 3 4 4 4 1 4 3 2 2 1 2 5 4 7 5 2 2 1 3 2 1 2 2 2 3 6 6 14 20 32 35 41
6 4 5 3 6 7 2 4 4 2 1 2 2 4 3 4 3 2 3 2 1 2 1 4 5 4 4 5 5 2 2 4 4 4 2 4 4 3 6 5 13 11 21 33 41
9 4 6 6 9 3 3 6 4 6 6 4 3 4 4 3 4 3 3 1 1 4 5 3 3 7 4 2 2 2 2 3 2 1 2 3 5 2 6 7 20 15 27 38 41
8 2 8 13 4 4 3 5 2 3 8 4 3 5 4 4 4 3 2 2 2 3 4 3 2 4 6 2 2 2 3 4 2 4 1 2 5 3 5 7 8 19 25 34 38
6 5 9 13 4 3 5 4 6 4 5 4 4 6 2 2 4 3 3 3 0 2 2 4 2 4 7 5 3 3 3 3 5 2 2 1 5 5 6 8 11 20 29 32 32
6 3 4 11 6 3 3 5 4 7 4 6 5 4 3 4 5 5 3 1 4 3 3 1 2 3 5 5 4 6 6 2 4 3 5 4 5 4 5 7 10 21 27 29 29
9 5 7 4 6 6 3 3 2 3 5 3 3 7 5 4 5 1 4 5 3 2 2 3 3 2 7 8 4 5 7 6 2 3 4 5 6 5 6 9 15 25 27 29 27
9 5 5 4 5 8 5 4 5 5 7 5 6 6 3 5 5 5 2 1 2 4 2 2 3 3 5 3 5 6 8 7 5 4 7 5 2 4 6 18 18 27 28 28 27
15 7 2 5 4 5 5 6 4 5 3 3 4 2 5 5 4 8 9 7 5 1 2 1 1 3 4 4 5 6 7 7 5 5 2 1 1 3 5 8 19 27 29 29 29
Wind_Direction
338 339 342 342 337 336 341 352 351 348 345 342 339 338 337 330 323 315 306 299 282 286 294 291 253 219 259 242 238 247 250 236 237 222 268 289 316 304 308 237 150 123 159 176 164
333 331 331 334 334 333 336 342 342 340 339 338 335 336 338 333 330 316 266 300 306 297 290 277 266 297 280 233 233 212 213 235 248 271 285 272 306 322 320 289 83 101 137 152 160
323 325 323 328 335 333 326 324 324 327 333 333 332 335 339 339 339 335 335 333 335 331 316 257 242 287 288 264 221 226 241 248 277 272 264 278 299 304 313 285 189 153 150 159 165
311 315 321 322 323 318 310 310 313 317 323 328 330 333 336 337 324 341 308 310 326 327 307 271 253 271 276 243 250 254 254 250 275 275 279 284 291 300 291 276 315 189 178 167 173
313 316 319 317 311 306 305 306 308 310 316 323 326 330 338 312 268 291 292 312 322 320 308 278 250 253 249 245 267 248 255 271 279 285 284 300 294 274 289 297 283 178 171 174 181
308 312 313 311 309 311 313 312 309 308 314 320 321 325 335 285 286 294 304 312 312 305 312 252 253 240 273 257 248 272 289 281 272 268 294 282 292 272 269 288 224 184 176 179 185
303 306 310 313 314 314 314 309 308 313 314 315 314 315 296 278 265 292 309 311 312 304 296 290 248 258 257 258 259 263 281 293 256 263 270 301 284 252 268 283 197 184 182 181 183
298 304 309 312 316 319 319 314 312 311 309 303 306 309 266 309 308 288 304 307 302 290 273 270 242 258 246 256 322 246 181 215 236 234 245 141 266 277 266 284 185 174 174 179 178
296 301 303 311 318 325 326 321 316 315 311 306 276 271 279 311 305 302 307 301 313 310 293 269 246 240 233 227 242 230 209 228 304 221 235 173 276 276 288 262 205 180 174 176 178
291 297 302 315 324 331 334 336 344 24 57 312 171 281 252 290 300 296 298 316 324 329 353 150 165 211 176 168 227 181 208 231 220 219 212 223 247 276 280 288 209 187 180 178 182
289 292 302 319 331 336 351 359 13 9 219 236 278 259 287 308 307 297 299 331 316 233 245 195 191 213 210 226 259 239 243 258 341 246 234 223 251 253 268 285 213 186 180 180 180
288 292 306 323 334 350 5 45 348 315 311 270 256 268 294 296 302 286 281 322 309 272 204 181 243 232 236 219 236 248 262 268 280 260 251 251 256 253 268 261 212 190 174 177 171
294 294 301 322 341 359 23 10 332 304 284 298 252 272 270 276 274 288 266 309 288 285 248 234 179 181 237 249 242 229 238 244 246 276 238 230 268 264 257 244 211 194 181 182 178
295 286 285 305 14 2 3 344 326 257 18 282 250 259 288 286 266 300 263 241 214 266 262 272 249 248 243 246 231 248 232 243 242 233 235 172 259 211 230 210 190 188 177 174 175
293 277 239 215 294 315 325 338 115 101 39 244 167 289 296 224 275 230 240 194 247 234 184 258 251 243 240 240 200 253 246 235 230 217 234 177 274 220 207 207 205 189 173 175 182
298 265 210 182 171 1 352 87 165 47 285 328 183 258 310 232 227 228 208 226 267 277 224 251 236 247 255 281 229 241 307 279 185 134 230 198 188 243 185 202 197 181 172 178 185
297 250 200 193 175 19 133 85 32 112 340 280 247 226 273 261 297 198 238 227 243 327 288 298 237 246 244 275 222 232 289 336 160 198 225 200 204 236 189 184 185 169 177 181 185
280 214 193 206 198 154 152 67 88 241 236 228 178 248 246 237 262 251 259 252 222 211 294 320 325 215 179 226 226 190 189 313 330 159 244 135 214 222 181 216 187 175 176 178 185
184 177 192 188 177 158 140 56 211 213 235 317 318 226 277 219 201 248 243 243 172 173 354 318 284 225 209 250 229 350 80 244 282 297 63 256 272 302 22 195 174 169 165 174 181
169 136 185 144 166 161 93 234 243 189 160 198 253 219 311 309 202 181 280 234 352 21 230 270 299 276 286 226 251 171 352 28 2 343 270 284 273 218 164 201 165 162 166 171 179
174 189 194 182 161 182 175 226 281 210 183 221 273 299 286 301 309 281 266 91 48 302 314 258 197 290 339 295 228 192 102 145 118 264 336 304 252 169 231 206 167 173 176 173 178
173 184 176 166 144 226 195 203 242 236 197 257 253 233 240 300 289 293 284 217 320 314 312 312 277 275 258 257 223 289 209 139 124 330 207 242 283 331 278 160 147 139 151 164 171
185 166 185 175 178 219 268 241 212 222 192 216 240 223 288 278 316 264 297 199 240 333 309 332 295 338 343 345 347 298 230 158 125 78 213 71 293 340 87 107 124 127 141 152 158
181 142 177 198 242 206 252 244 219 219 242 233 255 291 295 263 226 278 271 237 212 216 262 120 282 175 209 235 225 303 308 227 128 131 306 234 286 326 88 120 127 142 150 156 161
192 225 194 190 233 207 188 253 277 236 222 237 278 225 229 273 313 266 2 325 240 248 258 181 257 285 275 260 253 264 281 299 259 154 220 299 319 243 187 158 150 153 153 154 159
173 198 196 253 169 156 190 247 211 245 163 230 218 261 277 233 223 284 9 322 262 310 261 167 279 315 289 297 254 265 263 277 261 195 254 259 18 320 125 145 144 156 158 162 169
202 217 181 263 174 128 210 219 225 164 251 220 193 273 278 263 261 272 262 250 240 275 296 273 174 5 273 332 307 293 232 190 212 225 197 332 187 114 121 140 161 164 172 175 176